Temperature
0 0 -0 -0 0 0 1 0 0 -0 0 0 1 1 1 1 1 1 1 2 2 2 2 2 2 2 2 2 2 3 3 3 3 3 3 4 4 4
-0 -0 -1 -1 -1 -0 -0 -0 -0 -1 -1 -0 0 0 0 0 0 0 1 1 1 1 1 1 1 2 2 2 2 2 2 2 3 3 3 3 3 3
-1 -1 -1 -1 -1 -1 -1 -1 -1 -1 -1 -1 -1 -0 -0 -0 -0 -0 -0 -0 0 0 1 1 1 1 1 1 1 1 2 2 2 2 2 2 2 2
-1 -1 -1 -1 -2 -2 -2 -2 -2 -1 -2 -2 -1 -1 -1 -1 -1 -1 -1 -1 -1 -0 -0 -0 0 0 0 1 1 1 1 1 1 1 1 2 2 2
-2 -2 -2 -2 -2 -2 -2 -2 -2 -2 -2 -2 -2 -2 -2 -1 -2 -2 -2 -2 -2 -1 -1 -1 -1 -0 -0 -0 0 0 0 0 1 1 1 1 1 1
-2 -2 -2 -3 -3 -3 -3 -3 -3 -3 -3 -3 -3 -2 -2 -2 -3 -3 -3 -2 -2 -2 -2 -2 -1 -1 -1 -1 -0 -0 -0 -0 -0 -0 0 0 0 0
-3 -3 -3 -3 -3 -3 -3 -3 -3 -3 -3 -3 -3 -3 -3 -3 -3 -3 -3 -3 -3 -3 -3 -2 -2 -2 -2 -1 -1 -1 -1 -1 -1 -1 -1 -1 -1 -0
-4 -4 -4 -4 -4 -4 -4 -4 -4 -4 -4 -4 -4 -4 -3 -3 -4 -4 -4 -4 -4 -4 -3 -3 -3 -3 -3 -2 -2 -2 -2 -2 -2 -2 -2 -1 -1 -1
-4 -4 -4 -4 -4 -4 -4 -4 -4 -4 -4 -4 -4 -4 -4 -4 -4 -4 -4 -4 -4 -4 -4 -4 -4 -4 -3 -3 -3 -3 -3 -2 -2 -3 -2 -2 -2 -2
-5 -5 -5 -5 -5 -5 -5 -5 -5 -5 -5 -5 -5 -4 -4 -4 -4 -5 -5 -5 -5 -5 -5 -5 -5 -4 -4 -4 -4 -4 -3 -3 -3 -3 -3 -3 -3 -3
-5 -5 -5 -5 -5 -5 -6 -5 -5 -5 -5 -5 -5 -5 -5 -5 -5 -5 -6 -6 -6 -6 -6 -6 -6 -5 -5 -5 -4 -4 -4 -4 -4 -4 -4 -4 -3 -3
-6 -6 -6 -6 -6 -6 -6 -6 -6 -5 -5 -5 -5 -5 -5 -5 -6 -6 -6 -6 -6 -6 -6 -6 -6 -6 -6 -6 -5 -5 -5 -5 -4 -4 -4 -4 -4 -4
-7 -7 -6 -6 -6 -6 -6 -6 -6 -6 -6 -6 -6 -6 -6 -6 -6 -6 -6 -6 -6 -6 -6 -6 -6 -7 -7 -7 -6 -6 -6 -6 -5 -5 -5 -4 -4 -5
-7 -7 -7 -7 -7 -7 -7 -7 -6 -6 -6 -6 -6 -6 -6 -6 -6 -6 -7 -7 -7 -7 -7 -7 -7 -7 -7 -7 -7 -7 -7 -7 -6 -6 -5 -5 -5 -5
-8 -8 -7 -7 -7 -7 -7 -7 -7 -7 -7 -7 -7 -7 -7 -7 -7 -7 -7 -7 -7 -7 -8 -8 -8 -8 -8 -8 -8 -8 -7 -7 -7 -7 -6 -6 -6 -6
-8 -8 -8 -8 -8 -8 -8 -8 -8 -8 -8 -7 -7 -7 -7 -7 -7 -7 -8 -8 -8 -8 -8 -8 -8 -8 -8 -8 -8 -8 -8 -8 -8 -7 -7 -7 -7 -7
-9 -9 -9 -9 -9 -9 -8 -8 -8 -8 -8 -8 -8 -8 -8 -8 -8 -8 -8 -8 -9 -9 -9 -9 -9 -9 -9 -9 -9 -9 -9 -9 -8 -8 -8 -8 -7 -7
-9 -9 -9 -9 -9 -9 -9 -9 -9 -9 -9 -9 -9 -9 -9 -9 -9 -9 -9 -9 -9 -9 -9 -9 -9 -10 -10 -10 -9 -9 -9 -9 -9 -9 -9 -9 -8 -8
-10 -10 -10 -10 -10 -10 -10 -10 -9 -9 -9 -9 -9 -9 -9 -9 -9 -9 -10 -10 -10 -10 -10 -10 -10 -10 -10 -10 -10 -9 -10 -10 -10 -9 -10 -9 -9 -9
-11 -11 -11 -11 -11 -10 -10 -10 -10 -10 -10 -10 -10 -10 -10 -10 -10 -10 -10 -10 -10 -10 -10 -10 -11 -10 -10 -10 -10 -10 -10 -10 -10 -10 -10 -10 -10 -9
-11 -11 -11 -11 -11 -11 -11 -11 -11 -11 -10 -10 -10 -10 -10 -10 -10 -10 -11 -11 -11 -11 -11 -11 -11 -11 -11 -11 -11 -11 -10 -11 -11 -11 -11 -11 -11 -10
-12 -12 -11 -11 -11 -11 -11 -11 -11 -11 -11 -11 -11 -11 -11 -11 -11 -11 -11 -11 -11 -11 -11 -11 -11 -12 -12 -12 -12 -11 -11 -11 -11 -11 -11 -11 -11 -11
-12 -12 -12 -12 -12 -12 -12 -11 -11 -11 -11 -11 -11 -11 -11 -11 -11 -11 -12 -12 -12 -12 -12 -12 -12 -12 -12 -12 -12 -12 -12 -12 -11 -11 -11 -11 -11 -11
Wind_Speed
8 8 7 6 6 6 6 6 6 6 6 5 4 5 5 6 6 6 7 7 7 8 8 8 8 8 8 8 8 8 8 8 8 7 7 7 8 8
7 9 8 7 7 6 7 7 7 7 7 5 5 4 5 6 7 8 8 8 8 9 9 9 9 9 9 9 8 8 8 8 7 8 8 8 9 9
10 10 10 9 7 7 7 7 8 8 9 6 5 5 7 7 6 8 8 8 8 9 9 9 9 9 9 9 9 9 9 8 7 8 7 8 8 9
12 11 11 9 10 8 8 9 9 9 8 8 6 6 7 7 7 7 7 7 8 8 10 10 10 9 9 10 10 10 9 8 8 8 8 8 8 8
12 13 12 11 12 9 10 9 9 8 8 8 7 6 5 6 6 6 7 6 7 8 9 9 10 10 10 10 9 9 8 8 9 9 9 9 9 9
12 13 13 13 13 12 10 11 10 10 9 8 7 6 5 6 6 6 6 5 6 6 7 7 8 9 10 9 9 9 8 9 10 10 9 9 9 9
12 13 13 15 15 13 11 11 10 10 9 8 8 7 6 6 6 6 6 5 6 5 5 5 5 6 6 8 8 8 9 9 9 10 10 10 10 9
12 12 13 15 16 17 17 16 14 13 11 10 9 10 10 8 7 6 6 6 6 4 5 5 4 5 6 7 7 8 9 9 9 10 10 10 10 10
12 12 10 11 14 13 15 17 16 17 16 12 12 12 11 10 9 9 8 8 7 5 5 6 5 6 6 7 8 9 9 9 9 10 11 11 10 11
12 12 12 12 12 13 12 12 13 14 14 13 12 11 10 9 10 9 8 7 6 5 6 6 6 6 6 7 8 10 10 10 10 11 11 11 11 11
12 12 13 13 15 15 12 12 11 11 12 14 14 12 12 13 11 7 7 7 7 6 6 6 5 6 6 6 7 9 10 10 11 11 11 12 12 12
10 11 14 15 15 15 13 12 12 11 9 9 10 10 11 12 14 12 10 9 6 6 6 5 5 4 5 5 5 6 7 9 10 11 12 12 12 10
9 9 10 15 16 16 15 12 13 10 9 9 8 8 8 8 9 10 9 9 8 7 5 5 5 5 5 5 5 6 7 7 8 9 10 11 12 10
9 9 10 14 15 16 14 13 14 11 8 7 8 8 8 8 8 9 9 9 8 8 8 7 6 6 6 7 6 5 6 7 7 7 8 10 11 13
9 11 12 13 14 13 14 13 11 9 8 8 8 8 7 7 7 6 6 6 6 7 8 8 7 6 7 7 6 6 6 7 7 7 7 7 7 8
9 11 13 13 11 10 10 9 8 8 8 8 7 6 5 6 6 6 6 6 5 5 6 8 8 8 8 8 7 7 7 6 6 7 7 8 8 9
7 6 6 7 7 7 7 7 7 7 7 7 7 6 6 6 6 6 6 6 6 6 6 5 6 7 8 8 8 8 8 8 7 7 7 8 9 9
7 6 7 7 7 7 7 7 7 7 7 7 7 7 7 7 7 6 6 7 7 7 6 5 5 5 6 7 9 9 8 8 7 7 8 9 10 9
7 7 7 7 7 7 7 7 7 7 6 7 7 7 7 7 7 7 7 8 8 7 7 6 6 6 8 9 7 9 8 7 7 8 8 9 10 10
6 7 7 7 6 7 7 6 6 6 6 7 7 7 7 8 8 8 8 9 8 7 7 7 7 8 9 9 7 7 10 9 8 9 8 8 9 12
6 6 6 6 6 6 6 6 7 7 7 7 7 7 7 7 8 8 8 10 9 8 9 9 8 8 6 5 7 8 8 11 11 9 9 8 9 9
6 6 6 6 6 6 6 6 7 7 7 7 7 7 7 8 9 9 9 9 9 9 9 7 5 5 6 8 9 9 9 8 10 13 14 14 9 8
6 6 6 6 6 6 6 7 8 7 7 7 7 7 7 8 8 8 9 9 8 8 8 7 6 6 7 8 9 9 10 10 8 8 9 13 17 19
Wind_Direction
231 234 238 237 232 234 233 227 231 242 247 242 239 234 243 250 253 259 262 263 271 275 279 281 290 278 268 269 269 269 265 263 262 262 265 269 262 262
230 231 235 240 234 232 233 232 234 241 248 244 244 243 242 254 258 260 261 262 261 264 267 271 275 279 267 264 265 267 266 261 261 261 263 270 270 263
228 229 233 236 237 232 232 231 231 234 243 253 254 245 244 249 252 253 257 259 258 255 257 262 266 272 268 261 262 263 265 259 260 264 268 272 281 273
230 230 232 231 235 234 230 231 231 232 239 248 253 247 249 246 247 250 255 257 259 259 258 257 261 261 263 261 260 259 258 258 258 261 264 269 276 278
232 231 231 229 231 233 232 233 232 232 235 241 248 249 252 243 246 253 255 257 259 260 257 255 254 254 257 262 259 257 258 259 258 260 262 265 271 279
232 232 231 230 231 230 232 233 232 229 229 231 238 239 242 239 240 247 255 257 259 256 256 254 254 256 258 257 260 258 259 260 258 259 258 261 267 274
234 233 233 233 233 230 231 231 231 228 226 228 232 234 235 231 235 241 249 258 262 255 258 254 252 253 252 253 253 253 254 257 260 259 259 259 263 269
236 237 236 234 234 234 236 234 233 231 226 228 230 231 231 234 236 236 242 254 262 249 254 263 253 254 254 251 256 259 256 258 261 266 264 263 265 266
235 236 236 234 234 235 238 235 236 237 233 231 234 234 232 230 229 233 236 243 253 253 253 263 256 258 256 255 256 260 258 261 265 265 267 268 266 267
237 236 236 236 231 231 235 235 235 237 233 232 235 234 233 228 226 233 240 250 263 250 241 258 261 262 262 257 251 255 258 259 263 267 266 267 268 269
238 236 236 236 233 231 233 234 235 239 236 235 236 234 231 227 223 223 225 229 249 248 239 249 261 268 268 262 253 253 255 259 261 264 268 268 267 267
240 237 235 236 234 229 230 231 233 236 232 230 231 231 229 225 222 222 222 226 241 248 234 236 250 260 268 262 256 257 261 262 264 265 266 267 266 266
240 237 234 231 233 232 233 235 235 234 230 227 229 228 226 224 224 225 227 227 232 242 227 227 247 249 255 267 269 261 261 267 267 268 266 265 265 264
241 241 236 231 232 233 234 235 231 227 225 222 222 223 221 222 223 225 229 233 239 244 232 227 246 246 253 264 270 270 265 263 264 265 268 271 267 263
243 242 241 234 233 234 235 231 224 224 221 223 224 225 224 221 217 219 222 227 240 243 232 231 238 244 250 259 266 270 273 270 261 260 265 267 266 266
244 242 240 234 231 232 230 227 225 224 222 224 226 224 219 216 216 215 219 219 232 243 237 234 238 240 250 256 260 265 265 264 260 263 267 269 266 261
236 236 228 225 222 222 221 223 221 217 221 221 221 219 218 217 218 216 219 220 230 236 239 242 245 249 254 257 259 257 260 263 263 263 266 268 265 260
236 229 227 224 221 219 219 220 220 220 220 219 219 218 219 219 220 220 219 223 229 235 239 239 241 252 259 260 246 252 255 261 263 263 264 265 267 264
234 230 228 225 222 222 223 223 223 221 218 217 219 218 218 218 219 221 222 226 232 234 236 234 232 237 248 259 252 236 249 258 262 261 261 261 265 268
232 231 229 226 224 222 224 224 223 219 218 219 220 221 219 218 219 222 225 228 230 233 236 235 233 234 242 257 269 267 247 252 260 263 268 272 272 273
235 234 231 229 228 225 224 225 224 223 222 221 222 223 222 222 224 225 227 229 232 234 234 238 239 240 252 262 265 265 258 249 252 259 266 272 274 273
244 240 236 233 231 229 226 225 225 226 224 224 225 224 224 225 227 228 229 229 231 234 240 245 237 234 239 246 253 264 272 272 264 262 257 254 258 260
248 244 240 239 235 232 229 227 227 229 227 226 226 226 225 227 230 231 231 232 231 233 237 241 242 242 244 245 254 262 268 273 275 276 270 260 258 261
Height
1499 1501 1502 1503 1504 1505 1506 1508 1509 1508 1507 1508 1508 1508 1508 1509 1509 1509 1509 1509 1509 1509 1509 1509 1509 1509 1510 1510 1511 1511 1512 1512 1513 1514 1514 1515 1515 1516
1493 1494 1496 1497 1498 1499 1500 1501 1502 1503 1502 1502 1502 1503 1503 1504 1503 1504 1503 1503 1503 1503 1503 1504 1504 1503 1504 1505 1505 1506 1506 1507 1507 1508 1509 1510 1510 1511
1486 1488 1489 1490 1491 1492 1493 1494 1495 1497 1496 1496 1497 1497 1498 1498 1498 1498 1498 1497 1497 1498 1498 1498 1498 1498 1498 1499 1500 1500 1501 1501 1502 1503 1503 1504 1504 1505
1479 1480 1481 1483 1484 1485 1486 1487 1489 1490 1490 1490 1490 1491 1492 1492 1492 1492 1492 1492 1492 1491 1491 1492 1492 1492 1492 1493 1494 1494 1495 1496 1497 1497 1498 1499 1499 1499
1472 1473 1474 1476 1477 1478 1480 1481 1482 1483 1484 1485 1484 1485 1485 1486 1487 1487 1486 1486 1485 1485 1485 1485 1485 1486 1487 1487 1488 1489 1489 1490 1491 1492 1492 1493 1493 1493
1465 1466 1467 1468 1470 1471 1473 1474 1475 1476 1477 1478 1478 1479 1479 1480 1481 1481 1480 1480 1480 1480 1479 1479 1479 1480 1481 1481 1482 1482 1483 1484 1485 1486 1486 1486 1487 1487
1457 1458 1459 1461 1462 1464 1466 1467 1469 1469 1470 1471 1471 1472 1473 1474 1474 1475 1475 1475 1474 1474 1473 1473 1473 1474 1474 1475 1476 1477 1477 1478 1479 1479 1480 1480 1481 1481
1449 1450 1452 1453 1455 1457 1458 1460 1461 1462 1462 1464 1464 1465 1466 1468 1469 1470 1470 1469 1469 1469 1468 1468 1468 1468 1469 1470 1470 1471 1471 1472 1472 1473 1473 1474 1474 1475
1441 1443 1444 1445 1447 1449 1450 1451 1453 1454 1456 1457 1457 1458 1460 1462 1463 1464 1464 1464 1463 1464 1464 1462 1464 1463 1464 1464 1465 1465 1465 1466 1466 1467 1467 1467 1468 1468
1434 1435 1436 1437 1439 1441 1442 1443 1444 1446 1448 1450 1451 1452 1454 1456 1457 1458 1458 1459 1458 1458 1459 1458 1458 1459 1459 1459 1459 1459 1459 1460 1460 1460 1460 1461 1461 1462
1426 1427 1428 1430 1432 1434 1435 1436 1437 1438 1440 1442 1444 1446 1447 1449 1450 1452 1452 1453 1452 1452 1454 1454 1453 1453 1453 1453 1453 1453 1453 1454 1454 1454 1454 1454 1455 1455
1419 1420 1421 1422 1425 1426 1428 1429 1430 1431 1434 1435 1437 1438 1440 1442 1443 1445 1445 1446 1446 1447 1447 1449 1448 1449 1448 1447 1447 1447 1447 1447 1447 1447 1448 1448 1448 1448
1411 1412 1414 1415 1417 1419 1421 1422 1423 1426 1428 1429 1430 1431 1433 1435 1436 1438 1439 1440 1440 1441 1442 1443 1443 1443 1443 1441 1441 1442 1442 1441 1441 1441 1441 1441 1442 1442
1404 1405 1407 1409 1410 1412 1414 1415 1418 1420 1421 1422 1423 1424 1426 1427 1429 1431 1432 1433 1434 1435 1436 1437 1437 1437 1437 1436 1435 1435 1436 1435 1435 1434 1434 1434 1435 1435
1397 1399 1400 1402 1404 1406 1407 1409 1411 1413 1414 1415 1416 1417 1419 1421 1423 1424 1425 1427 1428 1428 1429 1430 1431 1431 1432 1431 1430 1429 1429 1428 1428 1428 1428 1427 1427 1428
1392 1393 1394 1395 1397 1399 1401 1402 1404 1406 1407 1408 1409 1411 1413 1415 1416 1418 1419 1420 1421 1421 1423 1424 1425 1426 1425 1425 1424 1423 1423 1422 1421 1422 1421 1420 1420 1420
1385 1386 1387 1388 1390 1391 1393 1395 1397 1399 1400 1401 1403 1405 1407 1408 1410 1412 1413 1414 1415 1415 1416 1417 1418 1419 1419 1419 1417 1417 1416 1416 1415 1415 1415 1413 1413 1413
1379 1379 1380 1381 1383 1384 1386 1388 1390 1392 1393 1395 1397 1399 1400 1402 1404 1405 1407 1407 1408 1409 1410 1411 1412 1412 1412 1411 1411 1410 1409 1409 1408 1408 1408 1406 1404 1405
1373 1373 1374 1375 1376 1378 1380 1382 1383 1385 1387 1389 1391 1393 1394 1396 1397 1399 1400 1401 1402 1403 1404 1405 1406 1406 1405 1404 1403 1404 1403 1402 1402 1401 1400 1399 1397 1397
1367 1367 1368 1369 1371 1372 1374 1376 1377 1379 1381 1383 1385 1387 1388 1389 1391 1392 1393 1394 1395 1396 1397 1398 1399 1399 1399 1398 1396 1395 1397 1396 1396 1394 1393 1392 1391 1390
1361 1361 1362 1363 1365 1366 1368 1370 1371 1373 1375 1377 1378 1380 1382 1383 1384 1385 1387 1388 1389 1389 1390 1391 1392 1393 1393 1393 1390 1387 1388 1389 1389 1388 1386 1385 1383 1381
1356 1356 1357 1358 1359 1360 1362 1364 1365 1367 1369 1370 1372 1374 1375 1377 1378 1379 1380 1381 1382 1383 1383 1384 1385 1386 1386 1385 1383 1381 1380 1380 1380 1380 1380 1378 1376 1373
1351 1351 1351 1352 1354 1355 1356 1358 1359 1361 1362 1364 1365 1367 1368 1370 1371 1372 1373 1374 1375 1376 1377 1377 1378 1379 1379 1378 1377 1375 1374 1373 1372 1371 1370 1370 1370 1368